This is the latest recevied weather packets stored in our database for station/object K9MWD. If no packets are shown the sender has not sent any weather packets the latest 10 day(s).
| Time | Temp. | Humidity | Pressure | Rain* | Wind** | Luminosity | Snow |
|---|---|---|---|---|---|---|---|
| 1777838112 | 27.78° C | 36% | 1018.9 hPa | 0 mm | - | 841 W/m² | - |
| 1777837809 | 27.22° C | 36% | 1019.3 hPa | 0 mm | - | 883 W/m² | - |
| 1777837506 | 27.22° C | 39% | 1019.3 hPa | 0 mm | - | 900 W/m² | - |
| 1777837201 | 26.67° C | 36% | 1019.1 hPa | 0 mm | - | 376 W/m² | - |
| 1777836897 | 27.22° C | 39% | 1019.4 hPa | 0 mm | - | 950 W/m² | - |
| 1777836593 | 27.22° C | 38% | 1019.4 hPa | 0 mm | - | 910 W/m² | - |
| 1777836289 | 26.67° C | 37% | 1019.6 hPa | 0 mm | - | 904 W/m² | - |
| 1777835984 | 26.11° C | 38% | 1019.9 hPa | 0 mm | - | 733 W/m² | - |
| 1777835683 | 26.67° C | 39% | 1019.8 hPa | 0 mm | - | 949 W/m² | - |
| 1777835378 | 26.67° C | 37% | 1019.7 hPa | 0 mm | - | 924 W/m² | - |
| 1777835076 | 26.67° C | 36% | 1019.9 hPa | 0 mm | - | 917 W/m² | - |
| 1777834773 | 26.11° C | 34% | 1019.9 hPa | 0 mm | - | 919 W/m² | - |
| 1777834469 | 26.67° C | 36% | 1019.9 hPa | 0 mm | - | 919 W/m² | - |
| 1777834168 | 26.11° C | 37% | 1020 hPa | 0 mm | - | 909 W/m² | - |
| 1777833866 | 26.11° C | 37% | 1020 hPa | 0 mm | - | 921 W/m² | - |
| 1777833562 | 26.11° C | 37% | 1020.1 hPa | 0 mm | - | 926 W/m² | - |
| 1777833258 | 26.67° C | 37% | 1020.3 hPa | 0 mm | - | 932 W/m² | - |
| 1777832955 | 26.67° C | 36% | 1020.3 hPa | 0 mm | - | 931 W/m² | - |
| 1777832654 | 26.67° C | 40% | 1020.3 hPa | 0 mm | - | 929 W/m² | - |
| 1777832351 | 25.56° C | 41% | 1020.4 hPa | 0 mm | - | 927 W/m² | - |
| 1777832048 | 25.56° C | 36% | 1020.9 hPa | 0 mm | - | 932 W/m² | - |
| 1777831744 | 26.11° C | 37% | 1020.8 hPa | 0 mm | - | 932 W/m² | - |
| 1777831443 | 26.11° C | 37% | 1020.8 hPa | 0 mm | - | 928 W/m² | - |
| 1777831139 | 25.56° C | 32% | 1020.9 hPa | 0 mm | - | 925 W/m² | - |
| 1777830837 | 26.11° C | 39% | 1021.1 hPa | 0 mm | - | 923 W/m² | - |
* Rain latest hour (hover to see other rain measurements)
** Current wind speed in m/s (hover to see current wind gust speed)